TimeCST,TemperatureF,Dew PointF,Humidity,Sea Level PressureIn,VisibilityMPH,Wind Direction,Wind SpeedMPH,Gust SpeedMPH,PrecipitationIn,Events,Conditions,WindDirDegrees,DateUTC
12:06 AM,32.0,28.4,87,29.93,7.0,NNW,10.4,-,0.00,,Light Freezing Drizzle,340,2013-01-13 06:06:00
12:42 AM,32.0,28.4,87,29.92,10.0,NNW,6.9,-,0.00,,Overcast,340,2013-01-13 06:42:00
12:51 AM,32.0,28.9,88,29.96,10.0,NW,9.2,-,0.00,,Overcast,320,2013-01-13 06:51:00
1:10 AM,32.0,28.4,87,29.94,10.0,NNW,12.7,-,N/A,,Overcast,330,2013-01-13 07:10:00
1:39 AM,32.0,28.4,87,29.93,10.0,NNW,13.8,-,N/A,,Overcast,340,2013-01-13 07:39:00
1:51 AM,32.0,28.0,85,29.95,10.0,NNW,10.4,-,N/A,,Overcast,330,2013-01-13 07:51:00
2:51 AM,30.9,27.0,85,29.99,10.0,NNW,11.5,-,N/A,,Overcast,330,2013-01-13 08:51:00
3:51 AM,30.2,26.6,86,30.02,10.0,NW,11.5,-,N/A,,Overcast,320,2013-01-13 09:51:00
4:29 AM,28.4,24.8,86,29.99,10.0,NNW,17.3,-,N/A,,Overcast,330,2013-01-13 10:29:00
4:51 AM,28.9,23.0,78,30.01,10.0,NNW,16.1,-,N/A,,Overcast,330,2013-01-13 10:51:00
5:51 AM,28.0,21.9,78,30.08,10.0,NW,10.4,-,N/A,,Overcast,320,2013-01-13 11:51:00
6:51 AM,27.0,21.0,78,30.07,10.0,NNW,11.5,-,N/A,,Overcast,330,2013-01-13 12:51:00
7:51 AM,27.0,21.0,78,30.14,10.0,WNW,10.4,-,N/A,,Overcast,290,2013-01-13 13:51:00
8:29 AM,26.6,19.4,74,30.09,10.0,NW,13.8,-,N/A,,Overcast,320,2013-01-13 14:29:00
8:51 AM,26.1,19.0,75,30.11,10.0,NW,12.7,-,N/A,,Overcast,320,2013-01-13 14:51:00
9:51 AM,26.1,19.0,75,30.11,10.0,NW,12.7,-,N/A,,Overcast,310,2013-01-13 15:51:00
10:45 AM,24.8,19.4,80,30.12,9.0,NW,10.4,-,0.00,Rain,Light Freezing Rain,310,2013-01-13 16:45:00
10:51 AM,26.1,19.0,75,30.17,9.0,WNW,8.1,-,0.00,Rain,Light Freezing Rain,300,2013-01-13 16:51:00
11:03 AM,24.8,17.6,74,30.15,10.0,WNW,11.5,-,N/A,,Overcast,300,2013-01-13 17:03:00
11:51 AM,25.0,18.0,75,30.12,9.0,NW,15.0,21.9,0.00,Snow,Light Snow,310,2013-01-13 17:51:00
12:51 PM,25.0,17.1,72,30.13,10.0,WNW,12.7,23.0,0.00,,Overcast,300,2013-01-13 18:51:00
1:10 PM,24.8,15.8,69,30.09,10.0,WNW,16.1,24.2,N/A,,Overcast,300,2013-01-13 19:10:00
1:40 PM,24.8,15.8,69,30.09,10.0,WNW,17.3,27.6,N/A,,Overcast,300,2013-01-13 19:40:00
1:51 PM,24.1,17.1,75,30.14,10.0,WNW,13.8,23.0,N/A,,Overcast,300,2013-01-13 19:51:00
2:51 PM,25.0,16.0,69,30.19,10.0,WNW,12.7,-,N/A,,Mostly Cloudy,300,2013-01-13 20:51:00
3:13 PM,24.8,15.8,69,30.18,10.0,WNW,10.4,23.0,N/A,,Mostly Cloudy,300,2013-01-13 21:13:00
3:42 PM,24.8,15.8,69,30.20,10.0,WNW,15.0,-,N/A,,Mostly Cloudy,290,2013-01-13 21:42:00
3:51 PM,25.0,16.0,69,30.25,10.0,WNW,12.7,19.6,N/A,,Mostly Cloudy,290,2013-01-13 21:51:00
4:51 PM,24.8,15.8,69,30.23,10.0,NW,10.4,-,N/A,,Scattered Clouds,310,2013-01-13 22:51:00
5:51 PM,24.1,14.0,65,30.30,10.0,NW,10.4,-,N/A,,Scattered Clouds,310,2013-01-13 23:51:00
6:51 PM,23.0,14.0,68,30.31,10.0,NW,5.8,-,N/A,,Partly Cloudy,310,2013-01-14 00:51:00
7:51 PM,23.0,12.9,65,30.32,10.0,NW,10.4,-,N/A,,Partly Cloudy,320,2013-01-14 01:51:00
8:51 PM,21.0,12.9,71,30.34,10.0,WNW,4.6,-,N/A,,Partly Cloudy,300,2013-01-14 02:51:00
9:51 PM,21.0,12.9,71,30.35,10.0,WNW,3.5,-,N/A,,Clear,290,2013-01-14 03:51:00
10:51 PM,21.0,12.9,71,30.38,10.0,West,4.6,-,N/A,,Clear,280,2013-01-14 04:51:00
11:51 PM,19.4,12.2,74,30.37,10.0,West,4.6,-,N/A,,Clear,260,2013-01-14 05:51:00